Weather reports worldwide

Advertisment
Aviemore, United Kingdom (3063): temperature & dewpoint: 10.12.2019 01:00:00 - 16.12.2019 01:00:00 (GMT)Aviemore, United Kingdom (3063): temperature -20cm & temperature -100cm: 10.12.2019 01:00:00 - 16.12.2019 01:00:00 (GMT)Aviemore, United Kingdom (3063): wind speed & gusts: 10.12.2019 01:00:00 - 16.12.2019 01:00:00 (GMT)Aviemore, United Kingdom (3063): wind direction: 10.12.2019 01:00:00 - 16.12.2019 01:00:00 (GMT)Aviemore, United Kingdom (3063): reduced air pressure: 10.12.2019 01:00:00 - 16.12.2019 01:00:00 (GMT)Aviemore, United Kingdom (3063): visibility: 10.12.2019 01:00:00 - 16.12.2019 01:00:00 (GMT)Aviemore, United Kingdom (3063): sunshine duration: 10.12.2019 01:00:00 - 16.12.2019 01:00:00 (GMT)Aviemore, United Kingdom (3063): precipitation: 10.12.2019 01:00:00 - 16.12.2019 01:00:00 (GMT)
Date & Time tt [°C] td [°C] tt -20cm [°C] tt -100cm [°C] ff [km/h] ff [kn] fx [km/h] fx [kn] dd ppp [hPa] vv [km] sd [min] rr [mm]
16.12.2019 01:00:00 1,4 -1,0 - - 13 7 - - SSW 986,6 45 0 0,0
16.12.2019 00:00:00 1,4 -1,5 - - 11 6 - - SSW 986,6 45 - 0,0
15.12.2019 23:00:00 0,9 -2,5 - - 9 5 - - SW 986,7 50 0 0,0
15.12.2019 22:00:00 1,6 -2,9 - - 11 6 - - SSW 986,4 50 0 0,0
15.12.2019 21:00:00 1,5 -2,7 - - 15 8 - - SSW 986,1 50 0 0,0
15.12.2019 20:00:00 1,3 -1,3 - - 11 6 - - SSW 986,3 50 0 0,2
15.12.2019 19:00:00 1,5 0,1 - - 9 5 - - SSW 985,7 27 0 0,0
15.12.2019 18:00:00 1,0 -0,6 - - 8 4 - - SW 985,6 50 0 0,0
15.12.2019 17:00:00 1,1 -0,3 - - 9 5 - - SSW 985,1 50 0 0,0
15.12.2019 16:00:00 1,5 -0,3 - - 9 5 - - SSW 984,3 50 0 0,0
15.12.2019 15:00:00 1,4 0,2 - - 13 7 - - SSW 983,8 28 0 0,0
15.12.2019 14:00:00 1,6 -0,1 - - 9 5 - - SSW 983,2 30 6 0,0
15.12.2019 13:00:00 1,5 -0,2 - - 5 3 - - SSW 982,7 40 6 0,0
15.12.2019 12:00:00 1,7 0,5 - - 11 6 - - SSW 982,1 19 12 0,0
15.12.2019 11:00:00 0,9 -0,3 - - 8 4 - - SSW 981,4 22 0 0,0
15.12.2019 10:00:00 0,5 -0,4 - - 8 4 - - SSW 980,7 45 0 0,0
15.12.2019 09:00:00 0,4 -0,5 3,7 5,7 8 4 - - SW 979,7 50 0 0,0
15.12.2019 08:00:00 0,3 -0,6 - - 8 4 - - SSW 978,8 6 0 0,0
15.12.2019 07:00:00 0,3 -0,7 - - 5 3 - - SSW 977,9 50 0 0,0
15.12.2019 06:00:00 0,2 -0,5 - - 5 3 - - SSW 977,2 40 0 0,0
15.12.2019 05:00:00 0,0 -0,7 - - 8 4 - - SSW 976,3 45 0 0,0
15.12.2019 04:00:00 -0,6 -1,4 - - 5 3 - - SSW 976,2 45 0 0,0
15.12.2019 03:00:00 -0,5 -1,5 - - 4 2 - - WSW 976,0 40 0 0,0
15.12.2019 02:00:00 0,3 -1,6 - - 5 3 - - WSW 975,7 45 0 0,0
15.12.2019 01:00:00 0,5 -0,5 - - 4 2 - - WSW 975,7 50 0 0,0
15.12.2019 00:00:00 0,8 0,2 - - 5 3 - - SW 975,4 50 - 0,2
14.12.2019 23:00:00 1,1 0,4 - - 2 1 - - SSW 975,0 35 0 0,4
14.12.2019 22:00:00 1,8 1,1 - - 4 2 - - W 973,9 2,9 0 0,2
14.12.2019 21:00:00 1,8 1,0 - - 9 5 - - SW 973,1 15 0 0,2
14.12.2019 20:00:00 2,2 0,5 - - 9 5 - - SSW 972,7 17 0 0,0
14.12.2019 19:00:00 2,6 0,2 - - 13 7 - - SW 972,4 35 0 0,0
14.12.2019 18:00:00 3,0 0,5 - - 9 5 - - SSW 972,5 50 0 0,0
14.12.2019 17:00:00 2,8 0,7 - - 11 6 - - SW 972,7 50 0 0,0
14.12.2019 16:00:00 2,5 0,4 - - 13 7 - - SSW 972,7 14 0 0,0
14.12.2019 15:00:00 2,4 0,8 - - 8 4 - - SSW 973,1 45 0 0,0
14.12.2019 14:00:00 2,8 0,7 - - 8 4 - - SW 973,1 50 12 0,0
14.12.2019 13:00:00 2,8 1,0 - - 9 5 - - SSW 973,1 45 18 0,0
14.12.2019 12:00:00 2,1 0,9 - - 8 4 - - SSW 973,1 40 6 0,0
14.12.2019 11:00:00 1,2 0,3 - - 8 4 - - SSW 973,0 50 0 0,0
14.12.2019 10:00:00 1,3 0,4 - - 5 3 - - SW 972,7 50 0 0,0
14.12.2019 09:00:00 0,6 -0,5 3,9 5,7 8 4 - - SW 972,4 50 0 0,0
14.12.2019 08:00:00 -0,1 -0,9 - - 4 2 - - SW 972,2 50 0 0,0
14.12.2019 07:00:00 -0,9 -1,6 - - 2 1 - - WSW 972,2 50 0 0,0
14.12.2019 06:00:00 0,1 -1,0 - - 5 3 - - SSW 971,8 50 0 0,0
14.12.2019 05:00:00 -0,4 -1,4 - - 2 1 - - N 971,3 50 0 0,0
14.12.2019 04:00:00 -0,3 -0,8 - - 2 1 - - ESE 971,3 50 0 0,0
14.12.2019 03:00:00 1,0 0,3 - - 2 1 - - WSW 971,2 50 0 0,0
14.12.2019 02:00:00 1,4 1,0 - - 5 3 - - WSW 971,0 50 0 0,0
14.12.2019 01:00:00 1,2 0,7 - - 2 1 - - WSW 971,1 50 0 0,0
14.12.2019 00:00:00 1,0 0,9 - - 2 1 - - WSW 971,2 50 - 0,0
13.12.2019 23:00:00 0,4 0,1 - - 2 1 - - SW 971,6 45 0 0,0
13.12.2019 22:00:00 0,3 0,0 - - 2 1 - - SSW 971,9 40 0 0,2
13.12.2019 21:00:00 0,4 -0,1 - - 2 1 - - WSW 972,0 35 0 0,0
13.12.2019 20:00:00 1,3 0,6 - - 5 3 - - W 972,3 30 0 0,0
13.12.2019 19:00:00 3,2 1,6 - - 5 3 - - WNW 972,3 50 0 0,0
13.12.2019 18:00:00 3,3 1,9 - - 5 3 - - NW 972,8 16 0 0,4
13.12.2019 17:00:00 3,5 2,1 - - 4 2 - - NNW 972,9 45 0 0,2
13.12.2019 16:00:00 3,8 2,6 - - 4 2 - - NW 973,3 3,6 0 0,2
13.12.2019 15:00:00 3,8 2,7 - - 4 2 - - N 973,3 6 0 0,2
13.12.2019 14:00:00 4,0 2,7 - - 8 4 - - NNW 973,2 4,2 0 0,0
13.12.2019 13:00:00 4,1 2,9 - - 11 6 - - N 972,8 12 0 0,2
13.12.2019 12:00:00 3,9 2,9 - - 11 6 - - N 973,0 2,9 0 0,2
13.12.2019 11:00:00 3,6 2,7 - - 11 6 - - N 973,0 8 0 0,4
13.12.2019 10:00:00 3,2 2,1 - - 11 6 - - NNW 973,0 13 0 0,8
13.12.2019 09:00:00 3,3 2,3 4,0 5,7 11 6 - - N 972,6 13 0 0,2
13.12.2019 08:00:00 3,0 2,3 - - 9 5 - - NNW 972,1 8 0 0,2
13.12.2019 07:00:00 2,9 2,1 - - 11 6 - - NNW 971,6 6 0 0,2
13.12.2019 06:00:00 2,8 2,1 - - 11 6 - - NW 971,3 4,0 0 0,2
13.12.2019 05:00:00 0,9 0,8 - - 4 2 - - ESE 971,3 5 0 0,0
13.12.2019 04:00:00 0,8 0,7 - - 0 0 - - N 971,5 5 0 0,2
13.12.2019 03:00:00 0,8 0,7 - - 2 1 - - N 971,7 2,5 0 0,0
13.12.2019 02:00:00 0,5 0,5 - - 4 2 - - N 971,8 17 0 0,0
13.12.2019 01:00:00 -0,4 -0,4 - - 2 1 - - NE 971,9 3,9 0 0,0
13.12.2019 00:00:00 -1,2 -1,3 - - 4 2 - - NNE 972,5 5 - 0,0
12.12.2019 23:00:00 -2,4 -2,6 - - 2 1 - - S 973,0 45 0 0,0
12.12.2019 22:00:00 -2,3 -2,5 - - 4 2 - - N 973,3 50 0 0,0
12.12.2019 21:00:00 -2,2 -2,5 - - 2 1 - - SW 973,9 23 0 0,0
12.12.2019 20:00:00 -1,9 -2,1 - - 2 1 - - WNW 975,0 45 0 0,0
12.12.2019 19:00:00 -2,3 -2,8 - - 4 2 - - NE 975,8 27 0 0,0
12.12.2019 18:00:00 -0,9 -1,2 - - 4 2 - - N 976,5 50 0 0,0
12.12.2019 17:00:00 -0,2 -0,8 - - 2 1 - - NNW 977,5 50 0 0,0
12.12.2019 16:00:00 0,5 -0,7 - - 4 2 - - SW 978,3 50 0 0,0
12.12.2019 15:00:00 2,1 -0,3 - - 4 2 - - W 979,2 50 0 0,0
12.12.2019 14:00:00 3,0 0,1 - - 8 4 - - SW 979,9 45 0 0,0
12.12.2019 13:00:00 2,9 0,2 - - 13 7 - - SW 980,8 50 24 0,0
12.12.2019 12:00:00 3,1 0,3 - - 11 6 - - SW 981,8 50 30 0,0
12.12.2019 11:00:00 2,2 -0,4 - - 13 7 - - SW 983,2 45 0 0,0
12.12.2019 10:00:00 2,1 -0,4 - - 15 8 - - SW 983,9 50 0 0,0
12.12.2019 09:00:00 2,1 -0,3 4,2 5,9 15 8 - - SW 984,4 50 0 0,0
12.12.2019 08:00:00 1,7 -0,2 - - 13 7 - - SW 985,1 50 0 0,0
12.12.2019 07:00:00 1,3 -0,6 - - 13 7 - - SW 985,8 50 0 0,0
12.12.2019 06:00:00 0,9 -0,3 - - 9 5 - - SW 986,6 50 0 0,0
12.12.2019 05:00:00 1,3 -0,3 - - 11 6 - - SSW 986,8 50 0 0,0
12.12.2019 04:00:00 1,2 -0,1 - - 13 7 - - SW 987,3 50 0 0,0
12.12.2019 03:00:00 1,3 0,2 - - 11 6 - - SW 987,9 50 0 0,0
12.12.2019 02:00:00 1,2 0,5 - - 11 6 - - SW 988,4 5 0 0,4
12.12.2019 01:00:00 1,1 0,1 - - 9 5 - - SW 988,7 50 0 0,0
12.12.2019 00:00:00 1,1 0,3 - - 13 7 - - SSW 989,1 24 - 0,2
11.12.2019 23:00:00 1,6 0,2 - - 13 7 - - SSW 989,0 17 0 0,0
11.12.2019 22:00:00 1,5 0,7 - - 11 6 - - SSW 989,0 15 0 0,2
11.12.2019 21:00:00 1,6 0,7 - - 11 6 - - SSW 988,9 13 0 0,8
11.12.2019 20:00:00 1,1 0,4 - - 9 5 - - SSW 988,3 11 0 1,6
11.12.2019 19:00:00 1,8 1,1 - - 8 4 - - SSW 988,1 7 0 0,8
11.12.2019 18:00:00 1,7 0,8 - - 11 6 - - SSW 988,0 9 0 0,4
11.12.2019 17:00:00 0,9 0,3 - - 15 8 - - SSW 987,5 5 0 2,2
11.12.2019 16:00:00 1,6 0,3 - - 13 7 - - SSW 987,6 2,5 0 1,0
11.12.2019 15:00:00 2,1 0,6 - - 15 8 - - SW 987,6 40 0 0,2
11.12.2019 14:00:00 2,3 0,3 - - 15 8 - - SSW 987,2 40 0 0,8
11.12.2019 13:00:00 1,8 0,3 - - 15 8 - - SSW 987,8 27 18 1,8
11.12.2019 12:00:00 1,4 0,7 - - 15 8 - - SW 988,2 50 0 1,6
11.12.2019 11:00:00 0,7 0,3 - - 9 5 - - SSW 988,5 6 0 2,0
11.12.2019 10:00:00 0,8 0,4 - - 9 5 - - SSW 988,8 12 0 1,2
11.12.2019 09:00:00 0,5 0,0 4,9 6,0 13 7 - - SSW 988,7 1,0 0 3,6
11.12.2019 08:00:00 1,8 1,0 - - 9 5 - - SW 988,9 10 0 1,0
11.12.2019 07:00:00 1,0 0,6 - - 11 6 - - SSW 988,5 11 0 1,6
11.12.2019 06:00:00 0,7 0,3 - - 13 7 - - SSW 988,6 8 0 3,0
11.12.2019 05:00:00 2,6 0,8 - - 11 6 - - SSW 989,0 9 0 0,2
11.12.2019 04:00:00 2,0 0,7 - - 9 5 - - SW 989,5 14 0 0,6
11.12.2019 03:00:00 1,7 1,0 - - 5 3 - - SW 990,3 6 0 0,2
11.12.2019 02:00:00 2,1 0,6 - - 15 8 - - SSW 989,8 19 0 0,2
11.12.2019 01:00:00 1,5 0,8 - - 11 6 - - SSW 989,6 6 0 2,2
11.12.2019 00:00:00 2,2 1,4 - - 15 8 - - SSW 988,4 30 - 1,0
10.12.2019 23:00:00 3,3 1,7 - - 16 9 - - SW 986,8 8 0 1,0
10.12.2019 22:00:00 3,1 1,7 - - 11 6 - - SW 985,8 9 0 1,0
10.12.2019 21:00:00 3,0 1,8 - - 15 8 - - SSW 985,5 3,2 0 1,6
10.12.2019 20:00:00 2,8 1,5 - - 13 7 - - SSW 984,3 35 0 0,0
10.12.2019 19:00:00 3,0 1,9 - - 11 6 - - SSW 983,6 14 0 1,0
10.12.2019 18:00:00 3,6 2,4 - - 9 5 - - SSW 982,6 8 0 0,0
10.12.2019 17:00:00 4,5 2,4 - - 11 6 - - SW 982,0 35 0 0,0
10.12.2019 16:00:00 5,8 3,0 - - 16 9 - - SW 981,0 50 0 0,6
10.12.2019 15:00:00 6,7 4,4 - - 21 11 54 29 WSW 979,5 5 0 5,2
10.12.2019 14:00:00 10,9 9,5 - - 15 8 46 25 SW 977,1 8 0 1,2
10.12.2019 13:00:00 10,6 9,0 - - 21 11 52 28 SW 978,2 50 0 0,4
10.12.2019 12:00:00 10,1 8,3 - - 22 12 57 31 SW 980,6 13 0 1,4
10.12.2019 11:00:00 9,4 7,7 - - 21 11 57 31 SW 983,4 9 0 1,4
10.12.2019 10:00:00 8,9 7,0 - - 26 14 76 41 SW 985,3 8 0 1,4
10.12.2019 09:00:00 8,3 6,2 4,7 6,0 22 12 67 36 SW 987,5 14 0 0,4
10.12.2019 08:00:00 7,7 5,4 - - 26 14 59 32 SSW 990,0 20 0 0,2
10.12.2019 07:00:00 7,5 4,0 - - 24 13 50 27 SSW 992,6 40 0 0,0
10.12.2019 06:00:00 6,6 3,3 - - 22 12 54 29 SW 995,3 40 0 0,0
10.12.2019 05:00:00 6,2 2,7 - - 24 13 55 30 SSW 998,3 24 0 0,0
10.12.2019 04:00:00 6,1 2,7 - - 34 18 63 34 SSW 1000,4 21 0 0,0
10.12.2019 03:00:00 5,8 2,5 - - 28 15 61 33 SSW 1003,1 28 0 0,0
10.12.2019 02:00:00 6,0 2,8 - - 22 12 50 27 SSW 1005,4 50 0 0,0
10.12.2019 01:00:00 5,9 2,4 - - 18 10 52 28 SW 1007,8 50 0 0,0

tt = temperature
td = dewpoint
tt -20cm = temperature -20cm
tt -100cm = temperature -100cm
ff = wind speed
fx = gusts
dd = wind direction
ppp = reduced air pressure
vv = visibility
sd = sunshine duration
rr = precipitation

Next stations